SCP
0 0 0 0 0 0 0 0 0 0 0 0 0 0 0 0 0 0 1 0 0 0 0 0 0 0 0 0 0 0 0 0 0 0 0 1 1 1
0 0 0 0 0 0 0 0 0 0 0 0 0 0 0 0 0 0 1 0 0 0 0 0 0 0 0 0 0 0 0 0 0 0 0 1 1 1
0 0 0 0 0 0 0 0 0 0 0 0 0 0 0 0 0 0 0 1 0 0 0 0 0 0 0 0 0 0 0 0 0 0 0 0 1 1
0 0 0 0 0 0 0 0 0 0 0 0 0 0 0 0 0 0 0 0 0 0 0 0 0 0 0 0 0 0 0 0 0 0 0 0 0 1
0 0 0 0 0 0 0 0 0 0 0 0 0 0 0 0 0 0 0 0 0 0 0 0 0 0 0 0 0 0 0 0 0 0 0 0 0 0
0 0 0 0 0 0 0 0 0 0 0 0 0 0 0 0 0 0 0 0 0 0 0 0 0 0 0 0 0 0 0 0 0 0 0 0 0 0
0 0 0 0 0 0 0 0 0 0 0 0 0 0 0 0 0 0 0 0 0 0 0 0 0 0 0 0 0 0 0 0 0 0 0 0 0 0
0 0 0 0 0 0 0 0 0 0 0 0 0 0 0 0 0 0 0 0 0 0 0 0 0 0 0 0 0 0 0 0 0 0 0 0 0 0
0 0 0 0 0 0 0 0 0 0 0 0 0 0 0 0 0 0 0 0 0 0 0 0 0 0 0 0 0 0 0 0 0 0 0 0 0 0
0 0 0 0 0 0 0 0 0 0 0 0 0 0 0 0 0 0 0 0 0 0 0 0 0 0 0 0 0 0 0 0 0 0 0 0 0 0
0 0 0 0 0 0 0 0 0 0 0 0 0 0 0 0 0 0 0 0 0 0 0 0 0 0 0 0 0 0 0 0 0 0 0 0 0 0
0 0 0 0 0 0 0 0 0 0 0 0 0 0 0 0 0 0 0 0 0 0 0 0 0 0 0 0 0 0 0 0 0 0 0 0 0 0
0 0 0 0 0 0 0 0 0 0 0 0 0 0 0 0 0 0 0 0 0 0 0 0 0 0 0 0 0 0 0 0 0 0 0 0 0 0
0 0 0 0 0 0 0 0 0 0 0 0 0 0 0 0 0 0 0 0 0 0 0 0 0 0 0 0 0 0 0 0 0 0 0 0 0 0
0 0 0 0 0 0 0 0 0 0 0 0 0 0 0 0 0 0 0 0 0 0 0 0 0 0 0 0 0 0 0 0 0 0 0 0 0 0
0 0 0 0 0 0 0 0 0 0 0 0 0 0 0 0 0 0 0 0 0 0 0 0 0 0 0 0 0 0 0 0 0 0 0 0 0 0
0 0 0 0 0 0 0 0 0 0 0 0 0 0 0 0 0 0 0 0 0 0 0 0 0 0 0 0 0 0 0 0 0 0 0 0 0 0
0 0 0 0 0 0 0 0 0 0 0 0 0 0 0 0 0 0 0 0 0 0 0 0 0 0 0 0 0 0 0 0 0 0 0 0 0 0
0 0 0 0 0 0 0 0 0 0 0 0 0 0 0 0 0 0 0 0 0 0 0 0 0 0 0 0 0 0 0 0 0 0 0 0 0 0
0 0 0 0 0 0 0 0 0 0 0 0 0 0 0 0 0 0 0 0 0 0 0 0 0 0 0 0 0 0 0 0 0 0 0 0 0 0
0 0 0 0 0 0 0 0 0 0 0 0 0 0 0 0 0 0 0 0 0 0 0 0 0 0 0 0 0 0 0 0 0 0 0 0 0 0
0 0 0 0 0 0 0 0 0 0 0 0 0 0 0 0 0 0 0 0 0 0 0 0 0 0 0 0 0 0 0 0 0 0 0 0 0 0
0 0 0 0 0 0 0 0 0 0 0 0 0 0 0 0 0 0 0 0 0 0 0 0 0 0 0 0 0 0 0 0 0 0 0 0 0 0
Wind_Speed
2 2 2 2 2 3 3 3 5 7 8 5 3 4 4 4 7 5 5 11 15 16 16 16 17 17 18 18 19 19 18 17 17 18 19 20 20 19
2 2 3 3 2 2 3 3 4 6 8 5 4 5 6 7 10 6 6 14 15 17 18 17 17 17 18 19 19 19 18 18 17 18 19 19 19 19
3 3 4 4 3 3 3 3 4 4 8 8 5 5 6 7 7 6 7 7 7 15 17 18 18 17 18 19 19 18 18 17 17 18 19 19 19 19
3 3 4 3 4 3 3 4 4 5 6 10 7 6 6 7 7 8 8 7 7 13 17 18 17 17 18 18 17 17 17 16 17 18 18 19 19 19
3 3 4 4 5 4 4 5 4 5 5 7 8 6 6 6 7 8 8 6 8 11 14 15 16 17 17 17 16 16 16 15 16 16 17 18 18 18
3 4 4 4 5 5 5 5 5 5 5 6 7 7 6 6 6 6 7 5 7 8 10 11 14 16 16 16 16 15 15 15 15 15 15 15 16 17
3 4 5 6 8 7 6 5 5 5 5 6 7 7 7 6 6 6 8 7 7 6 6 7 8 7 8 11 13 14 15 15 15 15 15 15 15 15
4 5 5 6 8 10 11 11 10 7 7 6 7 8 9 8 7 7 7 8 8 4 6 8 6 7 6 5 11 15 14 14 14 13 13 13 13 13
5 5 5 6 8 6 9 11 11 13 12 9 8 9 9 8 8 9 8 8 9 7 7 9 6 7 6 8 14 14 13 13 12 12 13 13 13 13
4 5 5 6 7 8 7 7 7 7 9 8 8 9 9 8 8 9 9 8 8 5 5 8 6 6 7 6 12 13 12 12 12 12 13 13 13 12
5 5 6 6 10 13 8 8 8 7 9 12 13 13 14 15 11 6 6 6 8 6 3 4 6 7 7 6 7 10 11 13 13 13 13 13 12 11
4 5 8 9 12 13 7 7 8 8 7 7 9 10 9 10 12 7 5 6 7 6 3 3 5 6 6 4 3 5 7 10 12 13 13 13 11 6
4 4 5 12 13 14 11 7 10 10 6 6 6 6 5 5 5 5 4 5 6 7 4 4 5 5 5 7 6 5 5 5 6 7 10 11 10 7
5 5 6 12 14 14 10 11 13 11 4 4 5 5 5 5 5 5 5 5 6 8 7 6 5 6 6 8 7 5 5 4 5 5 5 7 7 7
5 9 12 13 13 9 10 13 10 5 4 4 5 5 5 5 4 4 5 5 5 6 6 5 5 5 6 7 7 6 6 5 3 4 4 4 4 3
5 8 11 11 9 9 9 7 4 4 4 4 5 5 4 4 4 4 4 5 5 5 4 4 5 6 6 6 6 6 5 4 4 4 4 4 3 3
6 4 4 4 4 4 4 4 4 4 4 4 4 4 4 4 4 4 4 4 5 6 5 4 3 4 4 4 5 5 4 4 4 4 4 4 4 3
6 3 4 4 4 4 5 4 4 4 4 4 4 4 4 5 5 5 4 4 5 5 5 4 4 4 3 2 3 4 4 4 4 4 4 4 5 4
3 3 4 4 4 4 4 4 4 4 3 3 4 4 4 5 5 5 4 4 5 5 5 4 4 4 5 6 4 4 4 4 4 4 4 3 4 5
2 3 4 4 4 4 4 4 4 4 4 3 4 4 4 4 4 5 4 5 5 5 5 4 3 3 4 5 4 5 6 4 3 4 4 3 3 4
4 4 4 4 4 4 4 4 4 4 4 4 4 4 4 4 4 4 4 7 6 4 5 5 5 7 4 2 3 3 4 6 5 4 4 3 4 3
4 4 4 4 4 4 4 4 4 4 4 4 4 4 3 3 4 5 4 4 4 4 4 4 4 4 2 2 3 4 5 5 6 7 6 5 2 2
4 4 4 4 3 3 3 4 4 4 4 4 4 4 3 3 3 4 4 4 4 4 4 4 4 3 2 2 2 3 4 5 4 5 5 8 7 5
Wind_Direction
258 262 266 269 268 268 267 263 270 285 285 278 290 299 300 295 292 289 287 295 297 297 296 295 294 293 292 291 290 288 287 287 287 283 280 278 277 278
262 262 266 267 267 265 264 266 263 268 279 284 288 298 303 304 303 296 290 299 297 296 295 296 294 293 292 291 289 288 285 283 284 285 282 279 278 278
276 274 273 272 270 269 267 267 267 266 275 284 284 295 297 297 300 295 291 285 288 294 295 295 294 293 294 292 289 286 284 283 283 283 283 279 278 277
277 282 283 288 285 280 276 272 269 264 271 284 290 293 292 297 296 296 297 295 289 294 295 294 294 295 295 292 290 288 285 285 283 281 280 279 278 278
291 285 285 287 286 283 280 276 274 280 276 280 286 289 291 297 300 295 291 288 291 294 292 292 294 295 294 295 294 291 288 286 284 283 283 281 278 277
292 285 282 277 277 280 280 277 279 282 281 282 286 291 291 293 295 296 299 294 292 295 292 296 296 296 295 296 294 293 290 287 286 285 283 282 282 280
296 292 288 286 285 286 285 281 279 277 283 285 286 291 293 301 300 298 296 300 293 283 291 294 294 288 288 291 293 292 292 289 287 286 284 282 280 278
297 297 295 292 294 296 296 293 285 278 277 275 280 283 287 289 294 297 296 298 296 290 300 297 293 290 288 282 293 296 294 291 288 289 290 286 283 281
293 293 295 297 302 294 294 293 288 285 278 272 272 275 282 285 290 291 284 284 284 290 298 292 291 289 292 297 300 297 297 296 295 296 295 291 288 286
290 291 291 293 293 294 289 286 277 278 278 275 267 271 276 278 273 279 279 283 282 278 280 284 291 293 298 294 297 295 297 300 301 299 295 293 291 285
295 295 296 290 297 304 300 293 288 285 288 289 289 288 289 291 291 291 286 291 295 293 275 277 294 303 296 287 292 300 303 302 299 299 297 295 293 287
297 295 298 298 301 305 301 296 292 289 291 295 292 291 288 288 292 283 275 281 291 292 276 289 299 314 305 287 292 302 301 301 302 301 300 298 295 285
300 299 298 305 306 307 307 294 291 299 290 286 289 289 289 286 282 276 266 266 277 278 283 298 295 297 285 296 303 299 296 298 302 302 301 299 296 288
298 298 300 309 310 309 308 302 305 309 295 290 291 292 294 294 290 286 281 272 265 271 278 280 283 287 291 292 296 300 302 299 301 300 296 299 299 296
299 303 307 310 312 310 306 308 311 304 296 293 291 289 288 286 290 294 292 288 287 280 281 277 278 284 282 283 291 297 305 306 301 305 307 306 297 292
302 303 309 310 309 304 305 307 303 292 299 291 292 292 294 295 296 298 301 306 305 303 298 284 278 280 282 283 284 293 298 296 310 312 310 312 315 308
309 305 304 308 311 314 315 310 306 308 308 302 300 305 306 305 305 304 302 309 304 306 313 315 304 293 284 286 289 294 299 303 305 312 318 321 321 319
318 308 305 305 306 309 312 312 311 310 306 304 302 301 306 307 307 310 310 310 309 308 307 310 320 321 316 302 295 291 302 305 315 322 321 321 321 324
318 305 301 301 302 305 306 308 309 308 305 302 302 303 304 305 307 311 314 316 315 313 312 314 319 320 322 320 318 332 317 314 321 328 331 323 314 317
309 297 297 298 300 303 304 305 306 311 311 305 301 301 303 306 310 312 313 314 315 317 320 324 322 316 305 301 303 315 325 317 317 319 323 322 316 317
307 301 298 298 298 300 301 300 301 306 307 304 300 302 306 309 309 309 310 315 317 318 321 320 311 313 304 302 313 321 327 336 330 316 317 325 330 338
302 300 300 299 300 299 298 301 306 306 308 307 305 304 304 303 303 306 307 308 310 313 312 313 318 324 332 334 329 326 330 339 344 342 339 333 320 320
304 302 300 301 298 296 296 298 298 300 302 302 305 307 305 304 303 301 301 301 304 311 318 323 331 336 336 335 334 332 335 339 345 355 358 1 7 358